Location: Lac de la Montange Noire
(46.1952°N, 74.2701°W)
Time: 13:40:11
(UTC-04:00)

Iridium 42 - Visible Passes

Search period start: 24 May 2017 00:00
Search period end: 03 June 2017 00:00
Orbit: 775 x 778 km, 86.4° (Epoch: 24 May)

Date Brightness Start Highest point End Pass type
(mag) Time Alt. Az. Time Alt. Az. Time Alt. Az.
24 May 7.0 21:16:54 10° NNE 21:20:47 21° ENE 21:24:39 10° ESE visible
24 May 6.1 22:56:46 10° NNW 23:01:51 55° W 23:05:17 20° SSW visible
25 May 5.5 22:22:49 10° N 22:28:04 85° E 22:31:46 20° S visible
26 May 8.0 00:05:38 10° NW 00:07:58 13° WNW 00:10:18 10° WSW visible
26 May 5.9 21:49:05 10° N 21:54:09 48° E 21:58:16 15° SSE visible
26 May 7.5 23:30:29 10° NNW 23:34:30 23° W 23:38:30 10° SW visible
27 May 6.6 21:15:37 10° NNE 21:20:05 28° ENE 21:24:31 10° SE visible
27 May 6.7 22:56:04 10° NNW 23:00:54 39° W 23:05:15 12° SSW visible
28 May 5.7 22:21:58 10° N 22:27:10 70° W 22:31:46 13° S visible
29 May 5.6 21:48:06 10° N 21:53:19 67° E 21:58:18 11° SSE visible
29 May 7.9 23:30:10 10° NW 23:33:25 17° WNW 23:36:40 10° WSW visible
30 May 6.2 21:14:29 10° NNE 21:19:20 37° E 21:24:10 10° SSE visible
30 May 7.2 22:55:27 10° NNW 22:59:54 29° W 23:04:19 10° SW visible
31 May 6.3 22:21:11 10° NNW 22:26:13 51° W 22:31:15 10° SSW visible
01 Jun 5.6 21:47:12 10° N 21:52:27 89° W 21:57:40 10° S visible
01 Jun 8.2 23:30:20 10° NW 23:32:18 12° WNW 23:34:17 10° W visible
02 Jun 5.8 21:13:26 10° N 21:18:33 52° E 21:23:37 10° SSE visible
02 Jun 7.7 22:54:58 10° NNW 22:58:50 21° W 23:02:42 10° SW visible
